This is the latest recevied weather packets stored in our database for station/object IU7URP-13. If no packets are shown the sender has not sent any weather packets the latest 10 day(s).
| Time | Temp. | Humidity | Pressure | Rain* | Wind** | Luminosity | Snow |
|---|---|---|---|---|---|---|---|
| 1778008372 | 17.22° C | 99% | 1019.7 hPa | - | - | - | - |
| 1778007973 | 17.22° C | 99% | 1019.7 hPa | - | - | - | - |
| 1778006771 | 17.22° C | 99% | 1019.6 hPa | - | - | - | - |
| 1778005569 | 17.22° C | 99% | 1019.4 hPa | - | - | - | - |
| 1778004368 | 17.22° C | 99% | 1019.1 hPa | - | - | - | - |
| 1778003890 | 17.78° C | 99% | 1019.1 hPa | - | - | - | - |
| 1778002689 | 17.78° C | 99% | 1019.3 hPa | - | - | - | - |
| 1778001487 | 18.33° C | 99% | 1019.3 hPa | - | - | - | - |
| 1778000286 | 18.89° C | 99% | 1019.1 hPa | - | - | - | - |
| 1777999460 | 19.44° C | 99% | 1019.1 hPa | - | - | - | - |
| 1777998259 | 20.56° C | 99% | 1019 hPa | - | - | - | - |
| 1777997057 | 20.56° C | 99% | 1019 hPa | - | - | - | - |
| 1777995856 | 21.11° C | 99% | 1019.1 hPa | - | - | - | - |
| 1777994654 | 21.11° C | 99% | 1019.1 hPa | - | - | - | - |
| 1777993453 | 21.11° C | 99% | 1019.1 hPa | - | - | - | - |
| 1777992252 | 21.11° C | 99% | 1019.2 hPa | - | - | - | - |
| 1777991043 | 21.67° C | 99% | 1019.3 hPa | - | - | - | - |
| 1777990986 | 21.67° C | 99% | 1019.3 hPa | - | - | - | - |
| 1777989785 | 22.78° C | 99% | 1019.3 hPa | - | - | - | - |
| 1777988583 | 22.78° C | 91% | 1019.3 hPa | - | - | - | - |
| 1777987382 | 23.33° C | 68% | 1019.4 hPa | - | - | - | - |
| 1777986180 | 23.89° C | 46% | 1019.3 hPa | - | - | - | - |
| 1777985375 | 25° C | 53% | 1019.4 hPa | - | - | - | - |
| 1777984168 | 24.44° C | 54% | 1019.6 hPa | - | - | - | - |
| 1777983387 | 24.44° C | 62% | 1019.6 hPa | - | - | - | - |
* Rain since midnight (hover to see other rain measurements)
** Current wind speed in m/s (hover to see current wind gust speed)